Zurück zum Katalog

ANIK C2 R/B

PAM-D

AktivHEO
NORAD 14135·ROCKET BODY·🇺🇸 United States

Gestartet Jun 18, 1983 von Cape Canaveral Space Force Station

Loading…

Nächste Überflüge (nächste 24 Stunden)

TLE

AktuellSource: Space-Track

Epoche: Sep 14, 2026, 18:32 UTC

1 14135U 83059D   26257.77285394  .00003310  00000-0  20463-2 0  9990
2 14135  23.0333  89.3008 6918443 118.9304 325.9974  2.71742100323910

Verfolge ANIK C2 R/B in Echtzeit mit AllMySat

Download on the App Store